Other Surface Observations
Issued by NWS Charleston, SC

Home | Current Version | Previous Version | Text Only | Print | Product List | Glossary On
Versions: 1 2 3 4 5 6 7 8 9 10 11 12 13 14 15 16 17 18 19 20 21 22 23 24 25 26 27 28 29 30 31 32 33 34 35 36 37 38 39 40 41 42 43 44 45 46 47 48 49 50
000
SXUS52 KCHS 281312
OSOCHS

MARINE OBSERVATIONS
NATIONAL WEATHER SERVICE CHARLESTON SC
900 AM EDT FRI APR 28 2017

...DOWNTOWN CHARLESTON AND HARBOR...

CITY           SKY/WX    TMP DP  RH WIND       PRES   REMARKS
WATERFRONT PRK   N/A     75  73  93 SW7       30.05R

...LAKE MOULTRIE...

CITY           SKY/WX    TMP DP  RH WIND       PRES   REMARKS
PINOPOLIS        N/A     75  73  94 VRB3      29.98R

...LAKE AND SUPPLEMENTAL COASTAL OBSERVATIONS...

STATION/POSITION TIME  TEMP    WIND        PRES    WAVE   SWELL
                       AIR SEA DIR/SP/G            HT/PER HT/PER/DIR
                 (UTC) (F)     (DEG/KT/KT) (MB)    (FT/S) (FT/S/D)
FORT PULASKI     1248   77 75  170/  4/  5 1018.2R
SAPELO ISLAND    1200   76        CALM     1017.0
WINYAH BAY       NOT AVBL
LAKE MURRAY      1220   71     220/  4/  6 1016.6
ACE BASIN NERRS  1145   73        CALM     1017.0


...C-MAN AND BUOY OBSERVATIONS...

STATION/POSITION TIME  TEMP    WIND        PRES    WAVE   SWELL
                       AIR SEA DIR/SP/G            HT/PER HT/PER/DIR
                 (UTC) (F)     (DEG/KT/KT) (MB)    (FT/S) (FT/S/D)
BUOY 41004       1250   75 73  170/  8/ 10 1018.6R   4/ 6   3/150/ 6
BUOY 41008       1150   73 73  160/  8/  8 1016.5    3/ 8   3/120/ 8
FOLLY BEACH CMAN 1200   74     210/  5/  6 1018.4R
CAPERS NS BUOY   1208   73 73  200/  6/ 10 1017.7R
FRIPP NS BUOY    1208   73 72              1017.4R
5E ST. MARYS GA  1300      74                N/A     3/ 8


STATION/POSITION TIME  TEMP    WIND        PRES    WAVE   SWELL
                       AIR SEA DIR/SP/G            HT/PER HT/PER/DIR
                 (UTC) (F)     (DEG/KT/KT) (MB)    (FT/S) (FT/S/D)
FRYING PAN BUOY  1250   75 73  190/ 10/ 12 1019.1R   4/ 6   3/170/ 6
BUOY 41025       1150   77 77  210/ 19/ 21 1018.4    5/ 8   3/120/ 8
CAPE LOOKOUT NC  1200   74     200/ 10/ 12 1018.4R
BUOY 41002       1150   75 75  190/ 12/ 14 1021.3    4/ 5   3/100/ 8
BUOY 41010       1250   78 78  150/ 14/ 16 1019.6R   4/ 8   3/100/ 8
ST AUGUSTINE FL  1200   73 75  180/  9/ 10 1018.1R

$$




USA.gov is the U.S. government's official web portal to all federal, state and local government web resources and services.